Time,TemperatureF,DewpointF,PressureIn,WindDirection,WindDirectionDegrees,WindSpeedMPH,WindSpeedGustMPH,Humidity,HourlyPrecipIn,Conditions,Clouds,dailyrainin,SoftwareType,DateUTC
2013-01-26 00:02:00,61.2,59.4,30.18,South,184,1.0,4.0,94,0.00,,,0.00,meteohub,2013-01-26 06:02:00,
2013-01-26 00:07:00,61.3,59.5,30.18,South,184,0.0,4.0,94,0.00,,,0.00,meteohub,2013-01-26 06:07:00,
2013-01-26 00:12:00,61.3,59.5,30.18,South,184,1.0,4.0,94,0.00,,,0.00,meteohub,2013-01-26 06:12:00,
2013-01-26 00:17:00,61.2,59.4,30.18,South,184,0.0,3.0,94,0.00,,,0.00,meteohub,2013-01-26 06:17:00,
2013-01-26 00:22:00,61.0,59.0,30.18,South,184,0.0,3.0,93,0.00,,,0.00,meteohub,2013-01-26 06:22:00,
2013-01-26 00:27:00,60.6,58.6,30.18,South,184,0.0,2.0,93,0.00,,,0.00,meteohub,2013-01-26 06:27:00,
2013-01-26 00:32:00,60.4,58.6,30.18,South,184,1.0,0.0,94,0.00,,,0.00,meteohub,2013-01-26 06:32:00,
2013-01-26 00:37:00,60.4,58.6,30.18,South,184,0.0,1.0,94,0.00,,,0.00,meteohub,2013-01-26 06:37:00,
2013-01-26 00:42:00,60.4,58.6,30.18,South,184,1.0,2.0,94,0.00,,,0.00,meteohub,2013-01-26 06:42:00,
2013-01-26 00:47:00,60.4,58.6,30.18,South,184,0.0,3.0,94,0.00,,,0.00,meteohub,2013-01-26 06:47:00,
2013-01-26 00:52:00,60.4,59.0,30.18,South,184,1.0,3.0,95,0.00,,,0.00,meteohub,2013-01-26 06:52:00,
2013-01-26 00:57:00,60.4,59.0,30.18,South,184,2.0,3.0,95,0.00,,,0.00,meteohub,2013-01-26 06:57:00,
2013-01-26 01:02:00,60.3,58.8,30.18,South,184,2.0,3.0,95,0.00,,,0.00,meteohub,2013-01-26 07:02:00,
2013-01-26 01:07:00,60.3,58.8,30.18,South,184,3.0,3.0,95,0.00,,,0.00,meteohub,2013-01-26 07:07:00,
2013-01-26 01:12:00,60.1,58.6,30.18,South,184,2.0,4.0,95,0.00,,,0.00,meteohub,2013-01-26 07:12:00,
2013-01-26 01:17:00,59.9,58.5,30.18,South,184,3.0,4.0,95,0.00,,,0.00,meteohub,2013-01-26 07:17:00,
2013-01-26 01:22:00,60.1,58.6,30.18,South,184,1.0,4.0,95,0.00,,,0.00,meteohub,2013-01-26 07:22:00,
2013-01-26 01:27:00,60.1,58.6,30.18,South,184,1.0,4.0,95,0.00,,,0.00,meteohub,2013-01-26 07:27:00,
2013-01-26 01:32:00,60.1,58.6,30.18,South,184,3.0,4.0,95,0.00,,,0.00,meteohub,2013-01-26 07:32:00,
2013-01-26 01:37:00,60.1,58.6,30.18,South,184,1.0,4.0,95,0.00,,,0.00,meteohub,2013-01-26 07:37:00,
2013-01-26 01:42:00,60.1,58.6,30.18,South,184,2.0,4.0,95,0.00,,,0.00,meteohub,2013-01-26 07:42:00,
2013-01-26 01:47:00,60.1,58.6,30.18,South,184,2.0,3.0,95,0.00,,,0.00,meteohub,2013-01-26 07:47:00,
2013-01-26 01:52:00,60.1,59.0,30.18,South,184,3.0,4.0,96,0.00,,,0.00,meteohub,2013-01-26 07:52:00,
2013-01-26 01:57:00,59.9,58.8,30.18,South,184,2.0,4.0,96,0.00,,,0.00,meteohub,2013-01-26 07:57:00,
2013-01-26 02:02:00,59.7,58.6,30.18,South,184,2.0,4.0,96,0.00,,,0.00,meteohub,2013-01-26 08:02:00,
2013-01-26 02:07:00,59.7,58.6,30.18,South,184,3.0,4.0,96,0.00,,,0.00,meteohub,2013-01-26 08:07:00,
2013-01-26 02:12:00,59.7,58.6,30.18,South,184,3.0,5.0,96,0.00,,,0.00,meteohub,2013-01-26 08:12:00,
2013-01-26 02:17:00,59.5,58.1,30.18,South,184,2.0,5.0,95,0.00,,,0.00,meteohub,2013-01-26 08:17:00,
2013-01-26 02:22:00,59.4,58.3,30.18,South,184,2.0,5.0,96,0.00,,,0.00,meteohub,2013-01-26 08:22:00,
2013-01-26 02:27:00,59.2,58.1,30.18,South,184,3.0,4.0,96,0.00,,,0.00,meteohub,2013-01-26 08:27:00,
2013-01-26 02:32:00,59.2,58.1,30.18,South,184,2.0,4.0,96,0.00,,,0.00,meteohub,2013-01-26 08:32:00,
2013-01-26 02:37:00,59.2,58.1,30.18,South,184,1.0,4.0,96,0.00,,,0.00,meteohub,2013-01-26 08:37:00,
2013-01-26 02:42:00,59.2,58.1,30.18,South,184,2.0,4.0,96,0.00,,,0.00,meteohub,2013-01-26 08:42:00,
2013-01-26 02:47:00,58.8,57.7,30.18,South,184,2.0,4.0,96,0.00,,,0.00,meteohub,2013-01-26 08:47:00,
2013-01-26 02:52:00,59.0,57.9,30.18,South,182,4.0,4.0,96,0.00,,,0.00,meteohub,2013-01-26 08:52:00,
2013-01-26 02:57:00,59.0,57.9,30.18,South,177,4.0,5.0,96,0.00,,,0.00,meteohub,2013-01-26 08:57:00,
2013-01-26 03:02:00,59.0,57.9,30.18,South,172,4.0,5.0,96,0.00,,,0.00,meteohub,2013-01-26 09:02:00,
2013-01-26 03:07:00,59.0,57.9,30.18,SSE,165,4.0,5.0,96,0.00,,,0.00,meteohub,2013-01-26 09:07:00,
2013-01-26 03:12:00,58.8,57.7,30.18,SSE,165,3.0,6.0,96,0.00,,,0.00,meteohub,2013-01-26 09:12:00,
2013-01-26 03:17:00,58.6,57.6,30.18,SSE,165,4.0,6.0,96,0.00,,,0.00,meteohub,2013-01-26 09:17:00,
2013-01-26 03:23:00,58.6,57.6,30.18,SSE,165,2.0,6.0,96,0.00,,,0.00,meteohub,2013-01-26 09:23:00,
2013-01-26 03:28:00,58.6,57.6,30.18,SSE,165,2.0,4.0,96,0.00,,,0.00,meteohub,2013-01-26 09:28:00,
2013-01-26 03:33:00,58.5,57.4,30.18,SSE,165,4.0,5.0,96,0.00,,,0.00,meteohub,2013-01-26 09:33:00,
2013-01-26 03:38:00,58.3,57.2,30.17,SSE,165,4.0,5.0,96,0.00,,,0.00,meteohub,2013-01-26 09:38:00,
2013-01-26 03:43:00,58.3,57.2,30.17,SSE,165,3.0,6.0,96,0.00,,,0.00,meteohub,2013-01-26 09:43:00,
2013-01-26 03:48:00,57.9,56.8,30.17,SSE,165,2.0,6.0,96,0.00,,,0.00,meteohub,2013-01-26 09:48:00,
2013-01-26 03:53:00,57.7,56.7,30.18,SSE,165,0.0,6.0,96,0.00,,,0.00,meteohub,2013-01-26 09:53:00,
2013-01-26 03:58:00,57.7,56.7,30.18,SSE,165,0.0,5.0,96,0.00,,,0.00,meteohub,2013-01-26 09:58:00,
2013-01-26 04:03:00,57.7,56.7,30.18,SSE,165,0.0,4.0,96,0.00,,,0.00,meteohub,2013-01-26 10:03:00,
2013-01-26 04:08:00,57.7,56.7,30.18,SSE,165,0.0,4.0,96,0.00,,,0.00,meteohub,2013-01-26 10:08:00,
2013-01-26 04:13:00,57.7,56.8,30.18,SSE,165,0.0,2.0,97,0.00,,,0.00,meteohub,2013-01-26 10:13:00,
2013-01-26 04:18:00,57.7,56.8,30.18,SSE,165,0.0,2.0,97,0.00,,,0.00,meteohub,2013-01-26 10:18:00,
2013-01-26 04:23:00,57.7,56.8,30.18,SSE,165,0.0,2.0,97,0.00,,,0.00,meteohub,2013-01-26 10:23:00,
2013-01-26 04:28:00,57.6,56.7,30.18,SSE,165,1.0,1.0,97,0.00,,,0.00,meteohub,2013-01-26 10:28:00,
2013-01-26 04:33:00,57.6,56.7,30.18,SSE,165,0.0,4.0,97,0.00,,,0.00,meteohub,2013-01-26 10:33:00,
2013-01-26 04:38:00,57.7,56.8,30.18,SSE,165,0.0,4.0,97,0.00,,,0.00,meteohub,2013-01-26 10:38:00,
2013-01-26 04:43:00,57.7,56.8,30.18,SSE,165,0.0,3.0,97,0.00,,,0.00,meteohub,2013-01-26 10:43:00,
2013-01-26 04:48:00,57.7,56.8,30.18,SSE,165,2.0,0.0,97,0.00,,,0.00,meteohub,2013-01-26 10:48:00,
2013-01-26 04:53:00,57.7,56.8,30.18,SSE,165,0.0,3.0,97,0.00,,,0.00,meteohub,2013-01-26 10:53:00,
2013-01-26 04:58:00,57.7,56.8,30.19,SSE,165,0.0,3.0,97,0.00,,,0.00,meteohub,2013-01-26 10:58:00,
2013-01-26 05:03:00,57.7,56.8,30.19,SSE,165,1.0,3.0,97,0.00,,,0.00,meteohub,2013-01-26 11:03:00,
2013-01-26 05:08:00,57.7,56.8,30.19,SSE,165,0.0,2.0,97,0.00,,,0.00,meteohub,2013-01-26 11:08:00,
2013-01-26 05:13:00,57.7,56.8,30.19,SSE,165,0.0,2.0,97,0.00,,,0.00,meteohub,2013-01-26 11:13:00,
2013-01-26 05:18:00,57.7,56.8,30.19,SSE,165,0.0,2.0,97,0.00,,,0.00,meteohub,2013-01-26 11:18:00,
2013-01-26 05:23:00,57.7,56.8,30.19,SSE,165,1.0,2.0,97,0.00,,,0.00,meteohub,2013-01-26 11:23:00,
2013-01-26 05:28:00,57.9,57.0,30.19,SSE,165,0.0,2.0,97,0.00,,,0.00,meteohub,2013-01-26 11:28:00,
2013-01-26 05:33:00,57.9,57.0,30.19,SSE,165,0.0,2.0,97,0.00,,,0.00,meteohub,2013-01-26 11:33:00,
2013-01-26 05:38:00,57.9,57.0,30.19,SSE,165,0.0,2.0,97,0.00,,,0.00,meteohub,2013-01-26 11:38:00,
2013-01-26 05:43:00,58.1,57.2,30.19,SSE,165,0.0,2.0,97,0.00,,,0.00,meteohub,2013-01-26 11:43:00,
2013-01-26 05:48:00,58.1,57.2,30.19,SSE,165,0.0,1.0,97,0.00,,,0.00,meteohub,2013-01-26 11:48:00,
2013-01-26 05:53:00,58.1,57.2,30.19,SSE,165,0.0,1.0,97,0.00,,,0.00,meteohub,2013-01-26 11:53:00,
2013-01-26 05:58:00,58.1,57.2,30.19,SSE,165,0.0,1.0,97,0.00,,,0.00,meteohub,2013-01-26 11:58:00,
2013-01-26 06:03:00,57.9,57.0,30.19,SSE,165,0.0,2.0,97,0.00,,,0.00,meteohub,2013-01-26 12:03:00,
2013-01-26 06:08:00,57.9,57.0,30.19,SSE,165,0.0,2.0,97,0.00,,,0.00,meteohub,2013-01-26 12:08:00,
2013-01-26 06:13:00,57.9,57.0,30.19,SSE,165,1.0,2.0,97,0.00,,,0.00,meteohub,2013-01-26 12:13:00,
2013-01-26 06:19:00,57.7,56.8,30.19,SSE,165,0.0,1.0,97,0.00,,,0.00,meteohub,2013-01-26 12:19:00,
2013-01-26 06:24:00,57.2,56.3,30.19,SSE,165,1.0,1.0,97,0.00,,,0.00,meteohub,2013-01-26 12:24:00,
2013-01-26 06:29:00,56.7,55.8,30.19,SSE,165,0.0,2.0,97,0.00,,,0.00,meteohub,2013-01-26 12:29:00,
2013-01-26 06:34:00,56.5,55.6,30.20,SSE,165,0.0,2.0,97,0.00,,,0.00,meteohub,2013-01-26 12:34:00,
2013-01-26 06:39:00,56.3,55.4,30.20,SSE,165,0.0,2.0,97,0.00,,,0.00,meteohub,2013-01-26 12:39:00,
2013-01-26 06:44:00,56.5,55.6,30.20,SSE,165,0.0,2.0,97,0.00,,,0.00,meteohub,2013-01-26 12:44:00,
2013-01-26 06:49:00,56.5,55.6,30.20,SSE,165,0.0,2.0,97,0.00,,,0.00,meteohub,2013-01-26 12:49:00,
2013-01-26 06:54:00,56.5,55.6,30.21,SSE,165,0.0,0.0,97,0.00,,,0.00,meteohub,2013-01-26 12:54:00,
2013-01-26 06:59:00,56.5,55.6,30.21,SSE,165,0.0,0.0,97,0.00,,,0.00,meteohub,2013-01-26 12:59:00,
2013-01-26 07:04:00,56.1,55.2,30.21,SSE,165,1.0,0.0,97,0.00,,,0.00,meteohub,2013-01-26 13:04:00,
2013-01-26 07:09:00,56.1,55.2,30.21,SSE,165,1.0,2.0,97,0.00,,,0.00,meteohub,2013-01-26 13:09:00,
2013-01-26 07:14:00,56.1,55.2,30.21,SSE,165,0.0,2.0,97,0.00,,,0.00,meteohub,2013-01-26 13:14:00,
2013-01-26 07:19:00,56.1,55.2,30.21,SSE,165,1.0,2.0,97,0.00,,,0.00,meteohub,2013-01-26 13:19:00,
2013-01-26 07:24:00,56.3,55.4,30.22,SSE,165,1.0,2.0,97,0.00,,,0.00,meteohub,2013-01-26 13:24:00,
2013-01-26 07:29:00,56.3,55.4,30.22,SSE,165,0.0,2.0,97,0.00,,,0.00,meteohub,2013-01-26 13:29:00,
2013-01-26 07:34:00,56.1,55.2,30.21,SSE,165,3.0,3.0,97,0.00,,,0.00,meteohub,2013-01-26 13:34:00,
2013-01-26 07:39:00,56.3,55.4,30.21,SSE,165,2.0,3.0,97,0.00,,,0.00,meteohub,2013-01-26 13:39:00,
2013-01-26 07:44:00,56.7,55.8,30.21,SSE,165,2.0,4.0,97,0.00,,,0.00,meteohub,2013-01-26 13:44:00,
2013-01-26 07:49:00,56.7,55.8,30.22,SSE,165,1.0,4.0,97,0.00,,,0.00,meteohub,2013-01-26 13:49:00,
2013-01-26 07:54:00,56.8,55.9,30.22,SSE,165,0.0,4.0,97,0.00,,,0.00,meteohub,2013-01-26 13:54:00,
2013-01-26 07:59:00,57.0,56.1,30.22,SSE,165,2.0,3.0,97,0.00,,,0.00,meteohub,2013-01-26 13:59:00,
2013-01-26 08:04:00,57.0,56.1,30.22,SSE,165,1.0,3.0,97,0.00,,,0.00,meteohub,2013-01-26 14:04:00,
2013-01-26 08:09:00,57.0,56.1,30.22,SSE,165,0.0,2.0,97,0.00,,,0.00,meteohub,2013-01-26 14:09:00,
2013-01-26 08:14:00,57.0,56.1,30.22,SSE,165,2.0,2.0,97,0.00,,,0.00,meteohub,2013-01-26 14:14:00,
2013-01-26 08:19:00,57.0,56.1,30.22,SSE,165,0.0,2.0,97,0.00,,,0.00,meteohub,2013-01-26 14:19:00,
2013-01-26 08:24:00,57.0,56.1,30.22,SSE,165,0.0,2.0,97,0.00,,,0.00,meteohub,2013-01-26 14:24:00,
2013-01-26 08:29:00,57.2,56.3,30.22,SSE,165,0.0,2.0,97,0.00,,,0.00,meteohub,2013-01-26 14:29:00,
2013-01-26 08:34:00,57.2,56.3,30.22,SSE,165,1.0,2.0,97,0.00,,,0.00,meteohub,2013-01-26 14:34:00,
2013-01-26 08:39:00,57.4,56.5,30.22,SSE,165,1.0,2.0,97,0.00,,,0.00,meteohub,2013-01-26 14:39:00,
2013-01-26 08:44:00,57.6,56.7,30.22,SSE,165,0.0,2.0,97,0.00,,,0.00,meteohub,2013-01-26 14:44:00,
2013-01-26 08:49:00,57.7,56.8,30.22,SSE,165,0.0,2.0,97,0.00,,,0.00,meteohub,2013-01-26 14:49:00,
2013-01-26 08:54:00,57.9,57.0,30.23,SSE,165,0.0,2.0,97,0.00,,,0.00,meteohub,2013-01-26 14:54:00,
2013-01-26 08:59:00,58.1,57.2,30.23,SSE,165,0.0,2.0,97,0.00,,,0.00,meteohub,2013-01-26 14:59:00,
2013-01-26 09:04:00,58.3,57.4,30.23,SSE,165,0.0,2.0,97,0.00,,,0.00,meteohub,2013-01-26 15:04:00,
2013-01-26 09:09:00,58.5,57.6,30.23,SSE,165,0.0,1.0,97,0.00,,,0.00,meteohub,2013-01-26 15:09:00,
2013-01-26 09:14:00,58.8,58.3,30.24,SSE,165,0.0,2.0,98,0.00,,,0.00,meteohub,2013-01-26 15:14:00,
2013-01-26 09:19:00,59.2,58.6,30.24,SSE,165,0.0,2.0,98,0.00,,,0.00,meteohub,2013-01-26 15:19:00,
2013-01-26 09:24:00,59.4,58.8,30.24,SSE,165,2.0,2.0,98,0.00,,,0.00,meteohub,2013-01-26 15:24:00,
2013-01-26 09:29:00,59.5,59.0,30.24,SSE,165,0.0,1.0,98,0.00,,,0.00,meteohub,2013-01-26 15:29:00,
2013-01-26 09:34:00,59.7,59.2,30.24,SSE,165,0.0,2.0,98,0.00,,,0.00,meteohub,2013-01-26 15:34:00,
2013-01-26 09:39:00,60.3,59.7,30.24,SSE,165,1.0,2.0,98,0.00,,,0.00,meteohub,2013-01-26 15:39:00,
2013-01-26 09:45:00,60.3,59.7,30.24,SSE,165,2.0,2.0,98,0.00,,,0.00,meteohub,2013-01-26 15:45:00,
2013-01-26 09:50:00,60.1,59.2,30.24,SSE,165,0.0,3.0,97,0.00,,,0.00,meteohub,2013-01-26 15:50:00,
2013-01-26 09:55:00,59.9,59.0,30.24,SSE,165,2.0,3.0,97,0.00,,,0.00,meteohub,2013-01-26 15:55:00,
2013-01-26 10:00:00,59.9,59.0,30.24,SSE,165,0.0,3.0,97,0.00,,,0.00,meteohub,2013-01-26 16:00:00,
2013-01-26 10:05:00,60.3,59.4,30.24,SSE,165,2.0,3.0,97,0.00,,,0.00,meteohub,2013-01-26 16:05:00,
2013-01-26 10:10:00,60.3,59.7,30.24,SSE,165,1.0,3.0,98,0.00,,,0.00,meteohub,2013-01-26 16:10:00,
2013-01-26 10:15:00,60.4,59.5,30.24,SSE,165,0.0,3.0,97,0.00,,,0.00,meteohub,2013-01-26 16:15:00,
2013-01-26 10:20:00,60.8,59.9,30.24,SSE,165,0.0,3.0,97,0.00,,,0.00,meteohub,2013-01-26 16:20:00,
2013-01-26 10:25:00,61.3,60.8,30.24,SSE,165,2.0,3.0,98,0.00,,,0.00,meteohub,2013-01-26 16:25:00,
2013-01-26 10:30:00,61.5,61.0,30.24,SSE,165,1.0,3.0,98,0.00,,,0.00,meteohub,2013-01-26 16:30:00,
2013-01-26 10:35:00,61.9,61.3,30.24,SSE,165,0.0,3.0,98,0.00,,,0.00,meteohub,2013-01-26 16:35:00,
2013-01-26 10:40:00,62.4,61.9,30.25,SSE,165,3.0,3.0,98,0.00,,,0.00,meteohub,2013-01-26 16:40:00,
2013-01-26 10:45:00,62.4,61.9,30.24,West,260,0.0,3.0,98,0.00,,,0.00,meteohub,2013-01-26 16:45:00,
2013-01-26 10:50:00,62.8,62.2,30.24,West,260,0.0,4.0,98,0.00,,,0.00,meteohub,2013-01-26 16:50:00,
2013-01-26 10:55:00,63.1,62.6,30.24,NW,306,1.0,4.0,98,0.00,,,0.00,meteohub,2013-01-26 16:55:00,
2013-01-26 11:00:00,63.5,63.0,30.24,NW,307,0.0,4.0,98,0.00,,,0.00,meteohub,2013-01-26 17:00:00,
2013-01-26 11:05:00,64.0,63.5,30.24,NW,306,0.0,4.0,98,0.00,,,0.00,meteohub,2013-01-26 17:05:00,
2013-01-26 11:10:00,64.6,64.0,30.24,NW,306,0.0,2.0,98,0.00,,,0.00,meteohub,2013-01-26 17:10:00,
2013-01-26 11:15:00,65.1,64.6,30.23,NW,306,0.0,2.0,98,0.00,,,0.00,meteohub,2013-01-26 17:15:00,
2013-01-26 11:20:00,66.0,65.5,30.23,NW,306,0.0,2.0,98,0.00,,,0.00,meteohub,2013-01-26 17:20:00,
2013-01-26 11:25:00,66.9,65.7,30.23,NW,306,0.0,2.0,96,0.00,,,0.00,meteohub,2013-01-26 17:25:00,
2013-01-26 11:30:00,67.8,65.5,30.23,NW,306,2.0,3.0,92,0.00,,,0.00,meteohub,2013-01-26 17:30:00,
2013-01-26 11:35:00,68.4,64.9,30.23,NW,306,0.0,4.0,89,0.00,,,0.00,meteohub,2013-01-26 17:35:00,
2013-01-26 11:40:00,68.9,64.6,30.22,South,184,0.0,6.0,86,0.00,,,0.00,meteohub,2013-01-26 17:40:00,
2013-01-26 11:45:00,69.4,64.4,30.22,SSE,165,1.0,6.0,84,0.00,,,0.00,meteohub,2013-01-26 17:45:00,
2013-01-26 11:50:00,70.2,64.8,30.22,SE,132,2.0,6.0,83,0.00,,,0.00,meteohub,2013-01-26 17:50:00,
2013-01-26 11:55:00,70.3,64.2,30.22,SW,229,2.0,5.0,81,0.00,,,0.00,meteohub,2013-01-26 17:55:00,
2013-01-26 12:00:00,70.3,64.2,30.22,SW,229,3.0,5.0,81,0.00,,,0.00,meteohub,2013-01-26 18:00:00,
2013-01-26 12:05:00,70.5,63.7,30.21,SW,225,4.0,5.0,79,0.00,,,0.00,meteohub,2013-01-26 18:05:00,
2013-01-26 12:10:00,70.7,63.1,30.21,SW,219,6.0,7.0,77,0.00,,,0.00,meteohub,2013-01-26 18:10:00,
2013-01-26 12:15:00,70.9,62.6,30.21,SSW,212,7.0,7.0,75,0.00,,,0.00,meteohub,2013-01-26 18:15:00,
2013-01-26 12:20:00,71.2,63.0,30.20,SW,232,3.0,9.0,75,0.00,,,0.00,meteohub,2013-01-26 18:20:00,
2013-01-26 12:25:00,71.6,62.4,30.20,WSW,242,5.0,9.0,73,0.00,,,0.00,meteohub,2013-01-26 18:25:00,
2013-01-26 12:31:00,71.8,62.6,30.19,WSW,242,2.0,9.0,73,0.00,,,0.00,meteohub,2013-01-26 18:31:00,
2013-01-26 12:36:00,72.3,62.4,30.19,South,188,2.0,7.0,71,0.00,,,0.00,meteohub,2013-01-26 18:36:00,
2013-01-26 12:41:00,72.7,61.5,30.19,SSW,197,3.0,8.0,68,0.00,,,0.00,meteohub,2013-01-26 18:41:00,
2013-01-26 12:46:00,72.7,60.6,30.19,WSW,241,4.0,8.0,66,0.00,,,0.00,meteohub,2013-01-26 18:46:00,
2013-01-26 12:51:00,73.2,60.3,30.19,SSW,198,3.0,8.0,64,0.00,,,0.00,meteohub,2013-01-26 18:51:00,
2013-01-26 12:56:00,73.2,60.8,30.19,SW,219,6.0,13.0,65,0.00,,,0.00,meteohub,2013-01-26 18:56:00,
2013-01-26 13:01:00,73.4,61.3,30.18,SSW,200,2.0,13.0,66,0.00,,,0.00,meteohub,2013-01-26 19:01:00,
2013-01-26 13:06:00,73.6,60.6,30.18,SW,222,1.0,9.0,64,0.00,,,0.00,meteohub,2013-01-26 19:06:00,
2013-01-26 13:11:00,73.2,60.8,30.18,SW,222,3.0,8.0,65,0.00,,,0.00,meteohub,2013-01-26 19:11:00,
2013-01-26 13:16:00,73.0,60.6,30.18,WSW,242,0.0,8.0,65,0.00,,,0.00,meteohub,2013-01-26 19:16:00,
2013-01-26 13:21:00,73.0,61.0,30.18,WSW,242,3.0,6.0,66,0.00,,,0.00,meteohub,2013-01-26 19:21:00,
2013-01-26 13:26:00,73.2,61.2,30.18,WSW,242,0.0,5.0,66,0.00,,,0.00,meteohub,2013-01-26 19:26:00,
2013-01-26 13:31:00,73.9,61.9,30.18,SSW,208,5.0,5.0,66,0.00,,,0.00,meteohub,2013-01-26 19:31:00,
2013-01-26 13:36:00,74.3,61.3,30.18,SW,221,4.0,6.0,64,0.00,,,0.00,meteohub,2013-01-26 19:36:00,
2013-01-26 13:41:00,73.9,61.3,30.17,WSW,239,5.0,9.0,65,0.00,,,0.00,meteohub,2013-01-26 19:41:00,
2013-01-26 13:46:00,73.9,61.0,30.17,SW,227,0.0,9.0,64,0.00,,,0.00,meteohub,2013-01-26 19:46:00,
2013-01-26 13:51:00,74.3,61.3,30.17,SW,229,4.0,9.0,64,0.00,,,0.00,meteohub,2013-01-26 19:51:00,
2013-01-26 13:56:00,74.7,60.8,30.17,South,171,4.0,7.0,62,0.00,,,0.00,meteohub,2013-01-26 19:56:00,
2013-01-26 14:01:00,74.7,60.3,30.17,South,179,3.0,8.0,61,0.00,,,0.00,meteohub,2013-01-26 20:01:00,
2013-01-26 14:06:00,74.5,60.1,30.17,South,180,3.0,8.0,61,0.00,,,0.00,meteohub,2013-01-26 20:06:00,
2013-01-26 14:11:00,74.5,60.6,30.17,South,173,4.0,7.0,62,0.00,,,0.00,meteohub,2013-01-26 20:11:00,
2013-01-26 14:16:00,74.7,60.3,30.16,South,177,5.0,6.0,61,0.00,,,0.00,meteohub,2013-01-26 20:16:00,
2013-01-26 14:21:00,75.0,60.3,30.16,South,181,4.0,9.0,60,0.00,,,0.00,meteohub,2013-01-26 20:21:00,
2013-01-26 14:26:00,75.2,59.4,30.16,SW,236,2.0,10.0,58,0.00,,,0.00,meteohub,2013-01-26 20:26:00,
2013-01-26 14:31:00,75.4,59.5,30.16,SSW,200,1.0,10.0,58,0.00,,,0.00,meteohub,2013-01-26 20:31:00,
2013-01-26 14:36:00,75.6,59.7,30.16,South,176,4.0,7.0,58,0.00,,,0.00,meteohub,2013-01-26 20:36:00,
2013-01-26 14:41:00,75.2,59.4,30.16,SE,133,5.0,8.0,58,0.00,,,0.00,meteohub,2013-01-26 20:41:00,
2013-01-26 14:46:00,75.4,59.5,30.16,SSW,192,2.0,8.0,58,0.00,,,0.00,meteohub,2013-01-26 20:46:00,
2013-01-26 14:51:00,75.4,58.6,30.16,SE,138,3.0,8.0,56,0.00,,,0.00,meteohub,2013-01-26 20:51:00,
2013-01-26 14:56:00,75.6,58.8,30.16,SW,217,1.0,8.0,56,0.00,,,0.00,meteohub,2013-01-26 20:56:00,
2013-01-26 15:01:00,75.7,59.0,30.16,SSE,158,4.0,8.0,56,0.00,,,0.00,meteohub,2013-01-26 21:01:00,
2013-01-26 15:06:00,75.6,58.8,30.16,South,178,1.0,9.0,56,0.00,,,0.00,meteohub,2013-01-26 21:06:00,
2013-01-26 15:11:00,75.7,58.5,30.16,SE,129,4.0,9.0,55,0.00,,,0.00,meteohub,2013-01-26 21:11:00,
2013-01-26 15:16:00,75.4,58.6,30.16,SSE,156,5.0,11.0,56,0.00,,,0.00,meteohub,2013-01-26 21:16:00,
2013-01-26 15:21:00,75.4,59.0,30.16,SSE,152,5.0,11.0,57,0.00,,,0.00,meteohub,2013-01-26 21:21:00,
2013-01-26 15:26:00,75.2,59.0,30.16,SE,131,6.0,11.0,57,0.00,,,0.00,meteohub,2013-01-26 21:26:00,
2013-01-26 15:31:00,75.0,58.8,30.16,SSE,147,5.0,10.0,57,0.00,,,0.00,meteohub,2013-01-26 21:31:00,
2013-01-26 15:36:00,74.8,59.0,30.16,SE,126,4.0,9.0,58,0.00,,,0.00,meteohub,2013-01-26 21:36:00,
2013-01-26 15:41:00,75.0,59.2,30.16,SSE,163,4.0,9.0,58,0.00,,,0.00,meteohub,2013-01-26 21:41:00,
2013-01-26 15:46:00,74.8,59.5,30.15,SSE,152,3.0,9.0,59,0.00,,,0.00,meteohub,2013-01-26 21:46:00,
2013-01-26 15:51:00,74.8,59.5,30.16,SSE,157,5.0,8.0,59,0.00,,,0.00,meteohub,2013-01-26 21:51:00,
2013-01-26 15:56:00,74.8,59.5,30.15,SSE,160,3.0,8.0,59,0.00,,,0.00,meteohub,2013-01-26 21:56:00,
2013-01-26 16:01:00,74.8,59.5,30.15,South,186,6.0,8.0,59,0.00,,,0.00,meteohub,2013-01-26 22:01:00,
2013-01-26 16:06:00,75.0,59.7,30.15,SSE,158,4.0,8.0,59,0.00,,,0.00,meteohub,2013-01-26 22:06:00,
2013-01-26 16:11:00,75.0,59.2,30.15,SSE,155,3.0,8.0,58,0.00,,,0.00,meteohub,2013-01-26 22:11:00,
2013-01-26 16:16:00,75.0,59.7,30.15,SE,139,2.0,7.0,59,0.00,,,0.00,meteohub,2013-01-26 22:16:00,
2013-01-26 16:21:00,75.0,59.7,30.15,South,185,4.0,7.0,59,0.00,,,0.00,meteohub,2013-01-26 22:21:00,
2013-01-26 16:26:00,74.8,59.5,30.15,South,190,3.0,7.0,59,0.00,,,0.00,meteohub,2013-01-26 22:26:00,
2013-01-26 16:31:00,74.8,59.5,30.15,SE,146,4.0,7.0,59,0.00,,,0.00,meteohub,2013-01-26 22:31:00,
2013-01-26 16:36:00,74.5,59.2,30.15,SSE,155,4.0,6.0,59,0.00,,,0.00,meteohub,2013-01-26 22:36:00,
2013-01-26 16:41:00,74.3,59.0,30.15,SSE,153,5.0,6.0,59,0.00,,,0.00,meteohub,2013-01-26 22:41:00,
2013-01-26 16:46:00,74.1,58.8,30.15,SSE,148,3.0,6.0,59,0.00,,,0.00,meteohub,2013-01-26 22:46:00,
2013-01-26 16:51:00,73.8,59.0,30.15,SSE,155,3.0,5.0,60,0.00,,,0.00,meteohub,2013-01-26 22:51:00,
2013-01-26 16:56:00,73.2,58.5,30.15,SSE,149,2.0,6.0,60,0.00,,,0.00,meteohub,2013-01-26 22:56:00,
2013-01-26 17:01:00,73.0,58.3,30.15,SE,142,4.0,6.0,60,0.00,,,0.00,meteohub,2013-01-26 23:01:00,
2013-01-26 17:06:00,72.9,58.6,30.15,SE,142,3.0,6.0,61,0.00,,,0.00,meteohub,2013-01-26 23:06:00,
2013-01-26 17:11:00,72.9,58.6,30.16,SE,142,1.0,6.0,61,0.00,,,0.00,meteohub,2013-01-26 23:11:00,
2013-01-26 17:16:00,72.9,58.6,30.16,SE,142,1.0,5.0,61,0.00,,,0.00,meteohub,2013-01-26 23:16:00,
2013-01-26 17:22:00,72.5,58.8,30.16,SE,142,0.0,4.0,62,0.00,,,0.00,meteohub,2013-01-26 23:22:00,
2013-01-26 17:27:00,72.1,58.5,30.16,SE,142,1.0,3.0,62,0.00,,,0.00,meteohub,2013-01-26 23:27:00,
2013-01-26 17:32:00,72.1,58.5,30.16,SE,142,1.0,4.0,62,0.00,,,0.00,meteohub,2013-01-26 23:32:00,
2013-01-26 17:37:00,71.8,58.5,30.16,SE,142,1.0,4.0,63,0.00,,,0.00,meteohub,2013-01-26 23:37:00,
2013-01-26 17:42:00,71.4,58.6,30.16,SE,142,0.0,3.0,64,0.00,,,0.00,meteohub,2013-01-26 23:42:00,
2013-01-26 17:47:00,71.2,58.5,30.16,SE,142,2.0,3.0,64,0.00,,,0.00,meteohub,2013-01-26 23:47:00,
2013-01-26 17:52:00,71.1,58.6,30.16,SE,142,0.0,3.0,65,0.00,,,0.00,meteohub,2013-01-26 23:52:00,
2013-01-26 17:57:00,70.9,58.5,30.17,SE,142,0.0,3.0,65,0.00,,,0.00,meteohub,2013-01-26 23:57:00,
2013-01-26 18:02:00,70.5,58.1,30.17,SE,142,1.0,3.0,65,0.00,,,0.00,meteohub,2013-01-27 00:02:00,
2013-01-26 18:07:00,70.0,58.1,30.17,SE,142,0.0,2.0,66,0.00,,,0.00,meteohub,2013-01-27 00:07:00,
2013-01-26 18:12:00,69.8,58.3,30.17,SE,142,1.0,2.0,67,0.00,,,0.00,meteohub,2013-01-27 00:12:00,
2013-01-26 18:17:00,69.6,58.1,30.17,SE,142,1.0,2.0,67,0.00,,,0.00,meteohub,2013-01-27 00:17:00,
2013-01-26 18:22:00,69.4,58.5,30.17,SE,142,0.0,2.0,68,0.00,,,0.00,meteohub,2013-01-27 00:22:00,
2013-01-26 18:27:00,69.1,58.5,30.17,SE,142,0.0,2.0,69,0.00,,,0.00,meteohub,2013-01-27 00:27:00,
2013-01-26 18:32:00,69.1,58.5,30.17,SE,142,0.0,2.0,69,0.00,,,0.00,meteohub,2013-01-27 00:32:00,
2013-01-26 18:37:00,68.9,58.6,30.17,SE,142,2.0,2.0,70,0.00,,,0.00,meteohub,2013-01-27 00:37:00,
2013-01-26 18:42:00,69.1,58.8,30.17,SE,144,2.0,4.0,70,0.00,,,0.00,meteohub,2013-01-27 00:42:00,
2013-01-26 18:47:00,69.1,58.8,30.17,SE,144,2.0,4.0,70,0.00,,,0.00,meteohub,2013-01-27 00:47:00,
2013-01-26 18:52:00,68.9,58.6,30.17,SE,146,2.0,4.0,70,0.00,,,0.00,meteohub,2013-01-27 00:52:00,
2013-01-26 18:57:00,68.7,59.0,30.17,SE,146,0.0,3.0,71,0.00,,,0.00,meteohub,2013-01-27 00:57:00,
2013-01-26 19:02:00,68.5,58.8,30.17,SE,146,0.0,3.0,71,0.00,,,0.00,meteohub,2013-01-27 01:02:00,
2013-01-26 19:07:00,68.5,58.8,30.18,SE,146,0.0,3.0,71,0.00,,,0.00,meteohub,2013-01-27 01:07:00,
2013-01-26 19:12:00,68.4,58.6,30.18,SE,146,0.0,3.0,71,0.00,,,0.00,meteohub,2013-01-27 01:12:00,
2013-01-26 19:17:00,68.2,58.8,30.18,SE,146,1.0,2.0,72,0.00,,,0.00,meteohub,2013-01-27 01:17:00,
2013-01-26 19:22:00,68.2,58.8,30.18,SE,146,1.0,3.0,72,0.00,,,0.00,meteohub,2013-01-27 01:22:00,
2013-01-26 19:27:00,68.0,59.0,30.18,SE,146,0.0,3.0,73,0.00,,,0.00,meteohub,2013-01-27 01:27:00,
2013-01-26 19:32:00,67.8,58.8,30.18,SE,146,0.0,3.0,73,0.00,,,0.00,meteohub,2013-01-27 01:32:00,
2013-01-26 19:37:00,67.6,58.6,30.18,SE,146,0.0,2.0,73,0.00,,,0.00,meteohub,2013-01-27 01:37:00,
2013-01-26 19:42:00,67.5,58.8,30.18,SE,146,0.0,2.0,74,0.00,,,0.00,meteohub,2013-01-27 01:42:00,
2013-01-26 19:47:00,67.3,58.6,30.18,SE,146,0.0,1.0,74,0.00,,,0.00,meteohub,2013-01-27 01:47:00,
2013-01-26 19:52:00,67.1,58.8,30.18,SE,146,0.0,1.0,75,0.00,,,0.00,meteohub,2013-01-27 01:52:00,
2013-01-26 19:57:00,66.9,58.8,30.19,SE,146,0.0,1.0,75,0.00,,,0.00,meteohub,2013-01-27 01:57:00,
2013-01-26 20:02:00,66.9,58.8,30.18,SE,146,0.0,1.0,75,0.00,,,0.00,meteohub,2013-01-27 02:02:00,
2013-01-26 20:07:00,66.7,59.0,30.19,SE,146,1.0,1.0,76,0.00,,,0.00,meteohub,2013-01-27 02:07:00,
2013-01-26 20:12:00,66.7,59.0,30.19,SE,146,0.0,1.0,76,0.00,,,0.00,meteohub,2013-01-27 02:12:00,
2013-01-26 20:17:00,66.6,59.2,30.19,SE,146,1.0,2.0,77,0.00,,,0.00,meteohub,2013-01-27 02:17:00,
2013-01-26 20:22:00,66.4,59.0,30.19,SE,146,1.0,2.0,77,0.00,,,0.00,meteohub,2013-01-27 02:22:00,
2013-01-26 20:27:00,66.4,59.0,30.19,SE,146,0.0,2.0,77,0.00,,,0.00,meteohub,2013-01-27 02:27:00,
2013-01-26 20:32:00,66.4,59.0,30.19,SE,146,0.0,2.0,77,0.00,,,0.00,meteohub,2013-01-27 02:32:00,
2013-01-26 20:37:00,66.2,58.8,30.19,SE,146,0.0,2.0,77,0.00,,,0.00,meteohub,2013-01-27 02:37:00,
2013-01-26 20:42:00,66.0,59.0,30.19,SE,146,0.0,0.0,78,0.00,,,0.00,meteohub,2013-01-27 02:42:00,
2013-01-26 20:47:00,66.0,59.0,30.19,SE,146,0.0,0.0,78,0.00,,,0.00,meteohub,2013-01-27 02:47:00,
2013-01-26 20:52:00,65.8,58.8,30.19,SE,146,0.0,0.0,78,0.00,,,0.00,meteohub,2013-01-27 02:52:00,
2013-01-26 20:57:00,65.7,58.6,30.19,SE,146,0.0,0.0,78,0.00,,,0.00,meteohub,2013-01-27 02:57:00,
2013-01-26 21:02:00,65.5,58.8,30.19,SE,146,0.0,0.0,79,0.00,,,0.00,meteohub,2013-01-27 03:02:00,
2013-01-26 21:07:00,65.1,58.8,30.19,SE,146,0.0,0.0,80,0.00,,,0.00,meteohub,2013-01-27 03:07:00,
2013-01-26 21:12:00,64.9,58.6,30.19,SE,146,0.0,0.0,80,0.00,,,0.00,meteohub,2013-01-27 03:12:00,
2013-01-26 21:17:00,64.6,58.3,30.19,SE,146,0.0,0.0,80,0.00,,,0.00,meteohub,2013-01-27 03:17:00,
2013-01-26 21:22:00,64.2,58.3,30.19,SE,146,0.0,0.0,81,0.00,,,0.00,meteohub,2013-01-27 03:22:00,
2013-01-26 21:27:00,63.9,57.9,30.20,SE,146,0.0,0.0,81,0.00,,,0.00,meteohub,2013-01-27 03:27:00,
2013-01-26 21:32:00,63.0,57.7,30.20,SE,146,0.0,0.0,83,0.00,,,0.00,meteohub,2013-01-27 03:32:00,
2013-01-26 21:37:00,62.4,57.6,30.20,SE,146,0.0,0.0,84,0.00,,,0.00,meteohub,2013-01-27 03:37:00,
2013-01-26 21:42:00,62.1,57.6,30.20,SE,146,0.0,0.0,85,0.00,,,0.00,meteohub,2013-01-27 03:42:00,
2013-01-26 21:47:00,61.9,57.6,30.20,SE,146,0.0,0.0,86,0.00,,,0.00,meteohub,2013-01-27 03:47:00,
2013-01-26 21:52:00,61.9,57.9,30.20,SE,146,0.0,0.0,87,0.00,,,0.00,meteohub,2013-01-27 03:52:00,
2013-01-26 21:57:00,61.9,57.6,30.21,SE,146,1.0,1.0,86,0.00,,,0.00,meteohub,2013-01-27 03:57:00,
2013-01-26 22:02:00,61.9,57.6,30.21,SE,146,1.0,2.0,86,0.00,,,0.00,meteohub,2013-01-27 04:02:00,
2013-01-26 22:07:00,61.7,57.7,30.21,SE,146,2.0,2.0,87,0.00,,,0.00,meteohub,2013-01-27 04:07:00,
2013-01-26 22:12:00,61.9,57.9,30.21,SE,146,1.0,3.0,87,0.00,,,0.00,meteohub,2013-01-27 04:12:00,
2013-01-26 22:17:00,62.1,57.7,30.21,SE,146,2.0,3.0,86,0.00,,,0.00,meteohub,2013-01-27 04:17:00,
2013-01-26 22:22:00,61.9,57.6,30.21,SE,146,1.0,3.0,86,0.00,,,0.00,meteohub,2013-01-27 04:22:00,
2013-01-26 22:27:00,61.5,57.6,30.21,SE,146,1.0,2.0,87,0.00,,,0.00,meteohub,2013-01-27 04:27:00,
2013-01-26 22:32:00,61.3,57.4,30.21,SE,146,0.0,2.0,87,0.00,,,0.00,meteohub,2013-01-27 04:32:00,
2013-01-26 22:37:00,61.3,57.4,30.22,SE,146,1.0,2.0,87,0.00,,,0.00,meteohub,2013-01-27 04:37:00,
2013-01-26 22:42:00,61.3,57.7,30.21,SE,146,2.0,2.0,88,0.00,,,0.00,meteohub,2013-01-27 04:42:00,
2013-01-26 22:47:00,61.3,57.4,30.22,SE,146,1.0,3.0,87,0.00,,,0.00,meteohub,2013-01-27 04:47:00,
2013-01-26 22:52:00,61.3,57.4,30.21,SE,146,1.0,3.0,87,0.00,,,0.00,meteohub,2013-01-27 04:52:00,
2013-01-26 22:57:00,61.5,57.6,30.21,SE,146,0.0,3.0,87,0.00,,,0.00,meteohub,2013-01-27 04:57:00,
2013-01-26 23:00:00,61.5,57.6,30.21,SE,146,2.0,3.0,87,0.00,,,0.00,meteohub,2013-01-27 05:00:00,
2013-01-26 23:01:00,61.5,57.6,30.21,SE,146,2.0,3.0,87,0.00,,,0.00,meteohub,2013-01-27 05:01:00,
2013-01-26 23:06:00,61.5,57.4,30.21,SE,146,2.0,3.0,86,0.00,,,0.00,meteohub,2013-01-27 05:06:00,
2013-01-26 23:11:00,61.5,57.4,30.21,SE,146,1.0,3.0,86,0.00,,,0.00,meteohub,2013-01-27 05:11:00,
2013-01-26 23:16:00,61.5,57.6,30.22,SE,146,1.0,3.0,87,0.00,,,0.00,meteohub,2013-01-27 05:16:00,
2013-01-26 23:21:00,61.5,57.6,30.21,SE,146,1.0,4.0,87,0.00,,,0.00,meteohub,2013-01-27 05:21:00,
2013-01-26 23:26:00,61.9,57.9,30.21,SE,146,1.0,4.0,87,0.00,,,0.00,meteohub,2013-01-27 05:26:00,
2013-01-26 23:31:00,61.9,57.9,30.21,SE,146,1.0,4.0,87,0.00,,,0.00,meteohub,2013-01-27 05:31:00,
2013-01-26 23:36:00,62.1,57.7,30.21,SE,146,2.0,2.0,86,0.00,,,0.00,meteohub,2013-01-27 05:36:00,
2013-01-26 23:41:00,62.1,57.7,30.21,SE,146,1.0,3.0,86,0.00,,,0.00,meteohub,2013-01-27 05:41:00,
2013-01-26 23:46:00,61.9,57.4,30.21,SE,146,1.0,3.0,85,0.00,,,0.00,meteohub,2013-01-27 05:46:00,
2013-01-26 23:51:00,61.5,57.4,30.21,SE,146,2.0,3.0,86,0.00,,,0.00,meteohub,2013-01-27 05:51:00,
2013-01-26 23:56:00,61.3,57.2,30.21,SE,146,1.0,3.0,86,0.00,,,0.00,meteohub,2013-01-27 05:56:00,